FLOCK 4BE-18 (60480 NORAD) Tracking and Keplerian Element Data

This shows tracking and keplerian element data for the satellite.

Feedback or suggestion? Click here.




ElementValue
Catalog60480
NameFLOCK 4BE-18
Epoch Orbit865
Epoch Day286.84256956
Epoch Year2024
RAAN1.4736
Inclination97.4356
Eccentricity0.0005012
Argument of Perigee264.0304
Mean Anonmoly96.0359
Mean Motion15.19380829
Decay Rate0.00021296
L11 60480U 24149N 24286.84256956 .00021296 00000+0 10074-2 0 9998
L22 60480 97.4356 1.4736 0005012 264.0304 96.0359 15.19380829 8659



Live tracking and technical data element details for FLOCK 4BE-18 (NORAD 60480). FLOCK 4BE-18 can be tracked NOW for your location showing map with azimuth and elevation plus other details from your city location.







IsCatalogInMostPopularTable: catalog: 60480, numindb: 5
Update: records affected: 1



GetName: 60480 FLOCK 4BE-18

Hit Count: updated at: Wed, 04 Dec 2024 18:58:33 GMT